Location: Baia Mare
(47.6567°N, 23.5850°E)
Time: 04:08:18
(UTC+03:00)

ISS - Pass Details

Date: 08 May 2018
Orbit: 403 x 408 km, 51.6° (Epoch: 19 October)

Event Time Altitude Azimuth Distance (km) Brightness Sun altitude
Exits shadow 05:02:02 11° 252° (WSW) 1,379 -1.7 -8.8°
Maximum altitude 05:05:06 75° 338° (NNW) 421 -3.7 -8.4°
Drops below altitude 10° 05:08:23 10° 65° (ENE) 1,464 0.6 -8.0°
Sets 05:10:28 0° 67° (ENE) 2,328 2.0 -7.7°
